Regional Weather Roundup
Issued by NWS Cleveland, OH

Home | Current Version | Previous Version | Text Only | Print | Product List | Glossary On
Versions: 1 2 3 4 5 6 7 8 9 10 11 12 13 14 15 16 17 18 19 20 21 22 23 24 25 26 27 28 29 30 31 32 33 34 35 36 37 38 39 40 41 42 43 44 45 46 47 48 49 50
000
ASUS41 KCLE 031512
RWRCLE
OHIO REGIONAL WEATHER ROUNDUP
NATIONAL WEATHER SERVICE WILMINGTON, OH
1000 AM EST SAT DEC 03 2016

NOTE: "FAIR" INDICATES FEW OR NO CLOUDS BELOW 12,000 FEET WITH NO
SIGNIFICANT WEATHER AND/OR OBSTRUCTIONS TO VISIBILITY.

OHZ001>008-015>018-024>027-034-035-043-044-031600-
   NORTHWEST OHIO

CITY           SKY/WX    TMP DP  RH WIND       PRES   REMARKS
DEFIANCE       CLOUDY    37  28  70 W3        30.34S
FINDLAY        CLOUDY    36  28  73 W6        30.33R
TOLEDO EXPRESS CLOUDY    36  31  82 W7        30.33R
TOLEDO EXEC    CLOUDY    37  31  78 W5        30.35R
LIMA           CLOUDY    36  26  67 W8        30.34R
$$

OHZ009>014-019>023-028>033-038-089-031600-
   NORTHEAST OHIO

CITY           SKY/WX    TMP DP  RH WIND       PRES   REMARKS
CLE-HOPKINS    CLOUDY    38  30  73 SW9       30.34R
CLE-LAKEFRONT  CLOUDY    40  32  73 W13       30.31R
CUY CO. ARPT   CLOUDY    39  34  81 W14       30.30R
LORAIN-ELYRIA  CLOUDY    36  28  73 W8        30.33R
ASHTABULA      CLOUDY    39  33  79 W8        30.28R
AKRON-CANTON   LGT SNOW  35  30  82 W10       30.31R WCI  27
WOOSTER        CLOUDY    35  28  75 NW8       30.32R WCI  29
MANSFIELD      CLOUDY    35  28  75 W5        30.31R
YOUNGSTOWN     CLOUDY    36  30  79 W10       30.28R
$$

OHZ042-051>053-060>062-070>072-077>081-031600-
  SOUTHWEST OHIO

CITY           SKY/WX    TMP DP  RH WIND       PRES   REMARKS
CINC-COVINGTON CLOUDY    38  34  85 CALM      30.37R
CINC-LUNKEN    CLOUDY    40  32  73 VRB5      30.40R
HAMILTON       CLOUDY    39  27  62 N5        30.39R
DAYTON         CLOUDY    37  29  72 W7        30.36R
WRIGHT-PAT AFB CLOUDY    38  31  74 W8        30.36R
DAYTON GENERAL CLOUDY    37  29  72 NW8       30.35R
WILMINGTON     CLOUDY    36  33  89 W7        30.36R
$$

OHZ036-037-039>041-045>050-054>059-063>069-073>076-082>088-031600-
  CENTRAL AND SOUTHEAST OHIO

CITY           SKY/WX    TMP DP  RH WIND       PRES   REMARKS
COLUMBUS       CLOUDY    37  31  78 NW5       30.35R
OSU AIRPORT    CLOUDY    37  31  78 W5        30.35R
BOLTON FIELD   CLOUDY    36  32  87 W3        30.36R
RICKENBACK AFB CLOUDY    37  32  84 W6        30.36R
NEWARK         CLOUDY    35  29  78 CALM      30.34R
MARION         CLOUDY    35  29  78 W6        30.34R
LANCASTER      CLOUDY    38  32  79 CALM      30.36R
ZANESVILLE     CLOUDY    35  27  72 NW3       30.34R
NEW PHILLY     CLOUDY    35  30  82 CALM      30.34R
$$



USA.gov is the U.S. government's official web portal to all federal, state and local government web resources and services.